| time (UTC) | temp F | wind direction | speed MPH | gust MPH | rain 1hr in | rain 24hr in | rain mn in | humidity % | barometer mb |
| 20260505212509 | 48 | 317 | 0.0 | 3.0 | 0.00 | 0.03 | 0.03 | 85 | 1005.4 |
| 20260505203637 | 49 | 222 | 2.0 | 6.0 | 0.00 | 0.03 | 0.03 | 85 | 1005.2 |
| 20260505202145 | 49 | 276 | 0.0 | 3.0 | 0.00 | 0.03 | 0.03 | 85 | 1005.1 |
| 20260505200624 | 49 | 254 | 2.0 | 6.0 | 0.03 | 0.03 | 0.03 | 83 | 1005.3 |
| 20260505195100 | 50 | 225 | 2.0 | 6.0 | 0.00 | 0.02 | 0.02 | 81 | 1004.9 |
| 20260505193515 | 51 | 263 | 0.0 | 0.0 | 0.03 | 0.01 | 0.01 | 79 | 1004.9 |
| 20260505190414 | 53 | 221 | 4.0 | 13.0 | 0.00 | 0.00 | 0.00 | 66 | 1004.3 |
| 20260505184933 | 54 | 219 | 4.0 | 13.0 | 0.00 | 0.00 | 0.00 | 64 | 1004.1 |
| 20260505183421 | 56 | 219 | 5.0 | 16.0 | 0.00 | 0.00 | 0.00 | 57 | 1003.8 |
| 20260505181839 | 56 | 263 | 5.0 | 16.0 | 0.00 | 0.00 | 0.00 | 57 | 1003.6 |
| 20260505174548 | 57 | 300 | 3.0 | 11.0 | 0.00 | 0.00 | 0.00 | 57 | 1003.1 |
| 20260505171543 | 57 | 227 | 4.0 | 13.0 | 0.00 | 0.00 | 0.00 | 60 | 1003.0 |
| 20260505164546 | 57 | 223 | 4.0 | 17.0 | 0.00 | 0.00 | 0.00 | 64 | 1002.5 |
| 20260505163121 | 57 | 355 | 4.0 | 17.0 | 0.00 | 0.00 | 0.00 | 62 | 1002.3 |
| 20260505161631 | 58 | 308 | 4.0 | 14.0 | 0.00 | 0.00 | 0.00 | 64 | 1002.4 |
| 20260505152904 | 57 | 116 | 4.0 | 11.0 | 0.00 | 0.00 | 0.00 | 70 | 1002.3 |
| 20260505151335 | 56 | 333 | 3.0 | 10.0 | 0.00 | 0.00 | 0.00 | 74 | 1001.4 |
| 20260505123753 | 58 | 236 | 5.0 | 14.0 | 0.00 | 0.00 | 0.00 | 81 | 998.8 |
| 20260505120556 | 58 | 229 | 5.0 | 11.0 | 0.00 | 0.00 | 0.00 | 81 | 998.1 |
| 20260505115123 | 58 | 246 | 5.0 | 11.0 | 0.00 | 0.00 | 0.00 | 81 | 998.0 |
| 20260505113624 | 57 | 199 | 4.0 | 10.0 | 0.00 | 0.00 | 0.00 | 82 | 998.2 |
| 20260505112037 | 57 | 205 | 5.0 | 11.0 | 0.00 | 0.00 | 0.00 | 81 | 998.2 |
| 20260505110611 | 57 | 232 | 6.0 | 12.0 | 0.00 | 0.00 | 0.00 | 81 | 997.9 |
| 20260505102049 | 57 | 260 | 5.0 | 13.0 | 0.00 | 0.00 | 0.00 | 80 | 997.4 |
| 20260505094939 | 57 | 211 | 5.0 | 12.0 | 0.00 | 0.00 | 0.00 | 79 | 997.3 |
| 20260505093456 | 57 | 198 | 6.0 | 12.0 | 0.00 | 0.00 | 0.00 | 79 | 996.8 |
| 20260505091948 | 57 | 177 | 5.0 | 12.0 | 0.00 | 0.00 | 0.00 | 79 | 996.5 |
| 20260505090440 | 58 | 196 | 7.0 | 15.0 | 0.00 | 0.00 | 0.00 | 78 | 996.9 |
| 20260505084852 | 58 | 244 | 5.0 | 15.0 | 0.00 | 0.00 | 0.00 | 77 | 996.9 |
| 20260505083416 | 59 | 195 | 6.0 | 16.0 | 0.00 | 0.00 | 0.00 | 76 | 996.7 |
| 20260505080317 | 59 | 223 | 7.0 | 18.0 | 0.00 | 0.00 | 0.00 | 75 | 996.7 |
| 20260505065816 | 60 | 238 | 8.0 | 17.0 | 0.00 | 0.00 | 0.00 | 74 | 997.5 |
| 20260505064236 | 60 | 199 | 7.0 | 18.0 | 0.00 | 0.00 | 0.00 | 74 | 997.2 |
| 20260505062805 | 60 | 214 | 8.0 | 18.0 | 0.00 | 0.00 | 0.00 | 74 | 997.5 |
| 20260505061308 | 60 | 229 | 8.0 | 16.0 | 0.00 | 0.00 | 0.00 | 75 | 997.7 |
| 20260505055739 | 59 | 206 | 6.0 | 13.0 | 0.00 | 0.00 | 0.00 | 75 | 997.8 |
| 20260505054207 | 59 | 202 | 6.0 | 16.0 | 0.00 | 0.00 | 0.00 | 75 | 998.1 |
| 20260505052703 | 59 | 221 | 7.0 | 15.0 | 0.00 | 0.00 | 0.00 | 74 | 998.3 |
| 20260505051215 | 60 | 184 | 7.0 | 14.0 | 0.00 | 0.00 | 0.00 | 72 | 998.1 |
| 20260505035503 | 61 | 191 | 7.0 | 16.0 | 0.00 | 0.00 | 0.00 | 69 | 998.1 |
| 20260505032439 | 62 | 221 | 10.0 | 20.0 | 0.00 | 0.00 | 0.00 | 69 | 998.2 |
| 20260505030951 | 62 | 190 | 9.0 | 18.0 | 0.00 | 0.00 | 0.00 | 68 | 998.4 |
| 20260505025442 | 62 | 184 | 6.0 | 17.0 | 0.00 | 0.00 | 0.00 | 69 | 998.7 |
| 20260505023905 | 62 | 195 | 5.0 | 9.0 | 0.00 | 0.00 | 0.00 | 67 | 998.8 |
| 20260505015157 | 63 | 200 | 5.0 | 15.0 | 0.00 | 0.00 | 0.00 | 60 | 999.1 |
| 20260505013610 | 63 | 155 | 5.0 | 15.0 | 0.00 | 0.00 | 0.00 | 57 | 998.9 |
| 20260505010433 | 63 | 242 | 3.0 | 9.0 | 0.00 | 0.00 | 0.00 | 54 | 998.8 |
| 20260505003242 | 64 | 215 | 5.0 | 15.0 | 0.00 | 0.00 | 0.00 | 51 | 998.7 |
| 20260504234620 | 66 | 237 | 8.0 | 16.0 | 0.00 | 0.00 | 0.00 | 46 | 999.1 |
| 20260504233047 | 66 | 191 | 7.0 | 15.0 | 0.00 | 0.00 | 0.00 | 45 | 999.4 |
| 20260504231619 | 66 | 201 | 9.0 | 16.0 | 0.00 | 0.00 | 0.00 | 44 | 999.5 |
| 20260504230127 | 66 | 229 | 10.0 | 21.0 | 0.00 | 0.00 | 0.00 | 43 | 999.7 |
| 20260504224701 | 67 | 239 | 14.0 | 28.0 | 0.00 | 0.00 | 0.00 | 43 | 999.8 |
| 20260504223126 | 68 | 198 | 13.0 | 25.0 | 0.00 | 0.00 | 0.00 | 41 | 1000.3 |
| 20260504221556 | 68 | 251 | 11.0 | 27.0 | 0.00 | 0.00 | 0.00 | 43 | 999.8 |
| 20260504220031 | 68 | 320 | 13.0 | 27.0 | 0.00 | 0.00 | 0.00 | 43 | 999.9 |
| 20260504214457 | 67 | 228 | 13.0 | 26.0 | 0.00 | 0.00 | 0.00 | 44 | 1000.0 |